Bei uns kannst du mitfliegen! Besuche uns und lerne uns kennen - als Gast, Pilot oder jemand der es werden möchte.

Kölner Klub für Luftsport e.V.

KKFL.de

Ausbildung – Fliegen – Abenteuer

Ausbildung im KKFL

Ausbildung

Fliegen lernen im Verein
Der KKFL.de bietet eine effiziente, schnelle Ausbildung zur Pivatpilotenlizenz (PPL) in verschiedenen Ausprägungen an. Nach der Ausbildung können diverse Ergänzungen vom Verstellpropeller bis hin zu Nachtflug oder das Fliegen nach Instrumentenflugregeln (IFR) angeschlossen werden.
Fliegen im Verein ist günstig!

Unsere Flotte

Cessna 172 S

D-EOCD
Die Cessna ist als schnelle Schul- und Reisemaschine gleichsam beliebt. Unsere vereins-eigene Flotte sorgt für Abwechlung bei den Piloten und unsere Werft senkt Kosten. In der Ausbildung dürfen Schüler über 'ihre Maschine' mit entscheiden.

Cessna 172 R

D-EFPB

Piper PA 28 II

D-EFPA

Aquila A210

D-EAQJ

Piper PA 28 II

D-ELFF

Flugplatz Hangelar


[Quelle: ADDS]
METAR
EDDK 191020Z 24019KT 9999 FEW065CB 29/15 Q1008 NOSIG =
EDDK 190500Z 1906/2012 VRB03KT CAVOK BECMG 1906/1909 16006KT BECMG 1910/1913 22008KT PROB40 TEMPO 1912/1921 22015G25KT TSRA BKN040CB PROB30 TEMPO 1913/1920 23020G40KT 2000 TSRAGR BKN025CB BECMG 1921/1924 VRB03KT TEMPO 2000/2006 SHRA BKN010 BKN020TCU
TAF
EDDK 190500Z 1906/2012 VRB03KT CAVOK BECMG 1906/1909 16006KT BECMG 1910/1913 22008KT PROB40 TEMPO 1912/1921 22015G25KT TSRA BKN040CB PROB30 TEMPO 1913/1920 23020G40KT 2000 TSRAGR BKN025CB BECMG 1921/1924 VRB03KT TEMPO 2000/2006 SHRA BKN010 BKN020TCU =
SR / SS: 03:17 / 19:47 UTC (EDKB 2019-06-19)

Du willst fliegen?

Während unserer Bürozeiten und auch dazwischen sind wir für deine Fragen da.
Bitte kontaktiere den Verein unter den angegebenen Adressen.
© 2018 - Kölner Klub für Luftsport e.V.
Bonn / Hangelar - EDKB - Germany